RH
57 66 70 68 71 63 64 68 66 63 67 54 50 51 53 51 48 43 37 32 29 30 31 31 31 28 27 33 37 49 48 54 60 64 77 84 84 75 83 92 98 96 97 97
58 69 69 75 76 72 70 68 65 67 65 51 44 43 44 42 40 40 37 35 34 29 30 33 33 33 30 26 34 38 46 43 48 52 53 61 62 73 80 84 92 94 97 97
65 74 76 81 76 69 62 60 57 61 62 60 56 48 38 33 33 35 33 33 33 32 30 31 32 32 30 28 26 33 40 40 37 45 47 45 51 53 61 68 72 74 83 90
63 73 79 61 56 53 51 52 54 56 61 64 58 39 35 32 32 29 28 30 33 33 34 32 31 31 29 25 21 21 28 37 36 36 41 42 41 41 47 50 53 58 67 77
48 55 52 56 56 51 54 51 53 55 59 52 41 36 33 31 30 31 33 34 35 37 35 34 30 26 26 20 16 16 16 22 35 33 33 36 36 43 38 42 43 47 54 61
46 50 63 47 35 39 46 56 45 53 44 41 43 48 36 33 36 35 36 36 35 34 33 30 27 24 19 20 17 15 18 22 25 25 28 28 33 36 39 38 42 40 43 45
48 57 46 35 39 42 54 46 43 41 46 46 50 46 42 43 39 39 40 38 36 33 30 28 27 26 20 25 21 19 23 23 23 21 21 27 30 28 33 36 37 39 42 41
48 58 51 39 41 43 43 43 45 50 53 54 51 49 51 49 46 42 38 35 32 30 30 31 29 23 25 27 24 25 24 24 21 22 21 22 23 27 26 26 32 37 37 44
43 43 38 36 44 46 48 51 55 57 55 51 51 53 54 55 55 52 48 46 45 43 42 38 33 29 30 30 27 26 26 24 26 26 24 23 22 22 23 25 24 26 32 36
43 38 40 40 44 47 50 54 59 57 54 50 53 54 54 59 62 59 55 53 54 52 44 36 35 34 33 29 26 30 30 30 30 28 27 28 26 24 25 24 27 26 25 29
41 38 42 42 46 48 51 53 54 53 54 55 53 51 57 63 65 65 63 53 48 42 35 35 33 32 32 30 31 29 32 31 31 31 29 28 30 32 30 32 31 31 31 30
45 39 39 41 44 48 50 49 47 51 54 52 49 53 58 61 58 52 47 41 36 37 36 37 37 36 34 34 34 34 34 32 31 30 30 30 27 26 32 34 34 32 33 34
39 38 40 41 43 42 44 44 48 49 46 47 53 58 54 47 50 53 46 36 36 37 38 42 39 39 35 31 31 31 31 31 32 31 30 30 30 33 27 30 34 36 35 33
38 39 40 38 39 41 44 44 44 44 44 50 53 48 45 47 46 42 42 39 37 39 43 44 43 39 36 35 34 35 33 31 30 32 33 32 34 35 38 39 34 33 36 36
36 36 36 37 39 42 41 42 44 47 51 50 45 42 42 36 33 34 38 37 40 45 47 48 44 42 41 41 43 44 44 42 42 40 36 34 34 38 43 44 45 43 42 40
35 35 37 39 40 41 43 45 46 49 48 40 38 39 35 26 27 29 31 37 43 49 52 51 48 47 46 45 45 46 47 46 47 46 45 43 43 45 47 50 52 51 51 50
39 38 41 41 42 44 46 47 49 45 36 37 38 40 40 34 25 32 35 38 43 51 52 50 51 50 48 48 48 48 47 47 49 50 50 51 52 53 54 55 58 58 59 59
41 40 40 41 44 46 48 44 36 35 36 38 41 44 44 44 36 32 34 39 44 47 51 51 53 53 54 52 50 50 49 50 50 52 56 59 61 63 64 66 69 68 66 66
36 40 42 44 45 44 39 37 37 36 37 39 42 45 47 45 43 40 39 40 43 45 48 51 55 57 57 55 52 51 50 51 52 54 58 60 64 69 74 76 77 77 77 75
41 44 45 46 44 42 40 40 39 39 40 42 44 46 49 48 48 47 44 43 44 46 47 51 54 58 58 56 53 51 50 50 51 53 59 65 71 75 80 83 87 88 87 86
41 44 44 44 44 44 44 45 45 45 44 45 45 46 49 52 50 51 47 44 47 49 48 48 56 57 59 59 56 51 48 49 49 49 56 65 74 79 85 90 91 92 91 89
43 45 46 47 47 47 47 48 48 48 49 49 48 46 50 52 51 52 49 45 47 49 46 48 56 59 59 60 59 53 46 43 45 47 51 60 68 80 87 92 96 97 98 98
48 47 48 48 49 51 51 50 51 51 50 47 44 45 46 49 53 56 50 48 48 47 45 48 57 60 58 60 60 55 50 43 40 41 45 52 61 68 79 90 93 95 97 97
53 52 50 51 53 53 50 50 49 48 49 46 44 45 49 52 55 58 58 56 49 46 46 50 57 60 57 55 54 51 47 43 38 37 36 41 49 59 67 76 86 93 96 97
55 55 55 54 53 52 51 49 48 48 45 45 44 47 51 54 57 58 59 60 51 44 46 51 55 55 54 52 52 51 49 45 41 36 34 34 34 37 49 60 68 76 83 90
58 57 56 55 53 52 49 46 43 45 47 47 47 49 54 57 58 60 60 60 46 44 47 51 54 55 54 55 50 49 48 46 43 39 35 32 33 34 32 35 47 56 63 71
61 60 58 56 53 48 44 41 43 46 48 49 48 50 53 56 58 58 60 55 43 45 47 51 52 52 52 56 54 52 49 47 46 44 41 36 34 32 32 31 28 31 42 49